Location: Pasadena, ca
(34.1243°N, 118.1037°W)
Time: 05:04:10
(UTC-07:00)

ISS - Pass Details

Date: 16 October 2017
Orbit: 401 x 408 km, 51.6° (Epoch: 23 October)

Event Time Altitude Azimuth Distance (km) Brightness Sun altitude
Rises 19:25:03 0° 306° (NW) 2,322 0.9 -14.9°
Reaches altitude 10° 19:27:12 10° 299° (WNW) 1,460 -0.1 -15.4°
Maximum altitude 19:30:18 40° 228° (SW) 610 -2.6 -16.0°
Enters shadow 19:32:54 13° 160° (SSE) 1,269 -1.5 -16.6°
